750  
ASUS43 KJKL 190810  
RWRJKL  
 
EAST KENTUCKY HOURLY WEATHER ROUNDUP  
NATIONAL WEATHER SERVICE JACKSON KY  
400 AM EDT THU SEP 19 2019  
 
NOTE: "FAIR" INDICATES FEW OR NO CLOUDS BELOW 12,000 FEET WITH  
NO SIGNIFICANT WEATHER AND/OR S TO VISIBILITY
.  
 
* THESE REPORTS ARE NOT UNDER NWS QUALITY CONTROL AND MAY NOT  
REPORT WEATHER SUCH AS PRECIPITATION AND FOG.
 
 
KYZ079-080-083-085-087-088-110-112-115-119-120-190900   
..EASTERN KENTUCKY
 
 
 
CITY SKY/WX TMP DP RH WIND PRES REMARKS
 
JACKSON N/A 68 61 78 SE5 30.11S  
LONDON N/A 69 61 75 SE5 30.10R  
SOMERSET* N/A 68 61 77 CALM 30.09R  
MONTICELLO* N/A 72 67 84 E7 30.09R  
WILLIAMSBURG* N/A 68 63 83 S10 30.11R  
MIDDLESBORO* N/A 67 61 79 W3 30.14S  
HARLAN APT* N/A 67 58 72 E6G18 30.15S  
PIKE CO APT* N/A 66 56 69 SE9 30.14S  
BIG SANDY APT* N/A 67 57 69 SE6 30.14S  
MOREHEAD APT* PTSUNNY 66 55 68 VRB6 30.11S  
ASHLAND* N/A 62 58 86 CALM 30.12S  

 
 
KYZ035-036-041-042-044-050-067-078-099-190900   
..CENTRAL KENTUCKY
 
 
 
CITY SKY/WX TMP DP RH WIND PRES REMARKS
 
MT STERLING* N/A 68 55 64 SE5 30.11R  
FLEMING/MASON* N/A 63 53 68 E6 30.11S  
DANVILLE* N/A 63 61 94 CALM 30.08S  
LEXINGTON N/A 71 56 58 E6 30.07S  
FRANKFORT N/A 68 56 65 E5 30.06R  
LOUISVILLE N/A 73 56 54 VRB5 30.04S  
LEBANON* N/A 68 64 88 E6 30.05S  
GLASGOW* N/A 60 58 92 CALM 30.04S  
BOWLING GREEN N/A 66 62 87 CALM 30.03S  

 
 
KYZ091>093-OHZ055-061-077-WVZ005-015-034-035-042-190900   
..SOUTHERN OHIO/WEST VIRGINIA
 
 
 
CITY SKY/WX TMP DP RH WIND PRES REMARKS
 
COVINGTON MOCLDY 67 50 54 E7 30.08F  
COLUMBUS MOCLDY 62 46 55 E8 30.14S  
DAYTON N/A 64 48 56 E10 30.13F  
WILMINGTON N/A 58 50 75 E7 30.12F  
HUNTINGTON N/A 63 57 81 E5 30.12S  
CHARLESTON N/A 67 53 61 SE6 30.15S  
PINEVILLE* N/A 58 56 94 MISG 30.25S  
BECKLEY N/A 59 49 69 SE12 30.24F  
BLUEFIELD N/A 56 49 77 CALM 30.26S  
LOGAN CO APT* N/A 66 54 63 CALM 30.17R  

 
 
VAZ002-007-008-TNZ017-027-036-066-071-190900   
..SOUTHWEST VIRGINIA/EAST TENNESSEE
 
 
 
CITY SKY/WX TMP DP RH WIND PRES REMARKS
 
WISE* N/A 63 54 72 S7 30.22S  
JONESVILLE* N/A 64 59 82 MISG 30.18R  
ABINGDON* N/A 60 56 88 E9 30.22R  
BRISTOL N/A 62 56 80 CALM 30.18S  
MORRISTOWN* CLOUDY 70 59 68 E5 30.12S  
SEVIERVILLE* CLOUDY 72 63 73 CALM 30.11S  
KNOXVILLE CLOUDY 72 61 68 N5 30.11R  
LAFOLLETTE* CLOUDY 72 64 78 CALM 30.15S  
OAK RIDGE CLOUDY 75 63 66 VRB3 30.13S  
CROSSVILLE N/A 66 61 84 S5 30.14R  
NASHVILLE N/A 70 63 78 S6 30.04S  

 
   
..KEY TO REMARKS
 
 
VSB - VISIBILITY IN MILES  
WCI - WIND CHILL INDEX  
HX - HEAT INDEX  
 

 
 
 
CLICK HERE TO GO TO PREVIOUS BULLETINS.

The Nexlab KY Page Main Text Page